Timeline UpdatesTrip UpdatesNews PostsPvt PostsTravel TipsAdmin PostsConv PostsFollowed PostsChat RequestsBlog PostsPNR Posts

Disclaimer
Search
 
 
Fri Aug 1, 2014 13:21:04 ISTHomeTrainsΣChainsAtlasPNRForumGalleryNewsFAQTripsMembersLoginFeedback
No Recent News for this Train
Other Trains in the News **new
Latest...
Temporary Augmentation of 1 SL coach from 5/4/14-28/6/14 #1043381
Wed Apr 02, 2014 (11:23PM)
⇐ Return Journey: Train# 15905

15906/Dibrugarh - Kanyakumari Vivek Express

Jul 19 (8:50PM)
Change Departure Station:
Change Arrival Station:
Post a Train Travel TipPost a Train Travel Tip **new
Post a Comment/Question/Picture/VideoPost a Comment/Question/Picture/Video
Inaugural Run
Sat Nov 26, 2011
Pantry/Catering
✓ Pantry Car Avbl
✓ Catering Avbl
Loco/Rake Reversals
DGR/Durgapur (5); VSKP/Visakhapatnam Junction (8);
RSA - Rake Sharing
Rake/Coach Composition
LOCO-SLR-GS-GS-GS-B2-B1-A1-S9-PC-S8-S7-S6-S5-S4-S3-S2-S1-GS-GS-GS-SLR
Loco
Official Loco Links:- DBRG - DGR :- WDM-3A /3D DGR...
Read more...
- VSKP :- WAM-4/WAP-4 VSKP - CAPE :- WAM-4/WAP-4
News    PNR    Forum    Time-Table    Availability    Fare Chart    Map    Arr/Dep History    Trips    Gallery    ΣChains    X/O    Timeline    
Travel Time: 82h 15m    56 halts    Distance: 4236 km    Avg Speed: 51 km/hr
Type: Mail/Express
Zone: NFR/Northeast Frontier
Departs @ 23:45 (Avg 8m late)
Platform# 1
      S
Dibrugarh/DBRG 
Arrives @ 10:00 +4 nights (Avg 37m late)
Platform# ???
   W   
Kanniyakumari/CAPE 

56 halts. 674 intermediate Stations between Dibrugarh and Kanniyakumari

Show ALL intermediate Stations  Show Old Time-Table

#CodeStation NameX/OArrivesAvgDepartsAvgHaltPFDay#KmSpeedElevZoneAddress
1DBRG»Dibrugarh (4)»  -23:45+8110.042108mNFRDibrugarh 786003, Assam
2NTSKNew Tinsukia Junction (3)  00:45+400:55+610m--242.055124mNFRDist: Tinsukia, Assam
3MXNMariani Junction (4)  03:45+1103:55+910m12198.748117mNFRDist. Jorhat Pin-785634, Assam
4FKGFurkating Junction (2)  04:43+004:45+02m--2236.760 NFRK B Rd, Assam
5DMVDimapur (3)  05:55+606:00+135m--2306.962153mNFRDimapur, Nagaland
6DPUDiphu (2)  06:36+2206:37+241m--2344.222180mNFRDiphu, Assam
7LMGLumding Junction (5)  08:05+008:10+65m--2376.349142mNFRLumding, Assam
8JIDJagi Road (2)  10:41+810:42+91m--2500.04462mNFRJagiroad, Assam
9GHYGuwahati (7)  12:00+312:15+315m--2557.17360mNFRGuwahati, Assam
10GLPTGoalpara Town (2)  14:02+4214:04+432m--2687.63149mNFRGoalpara Town Rail Station, Assam
11NBQNew Bongaigaon Junction (4)X  15:45-115:50+05m--2739.15858mNFR783381., Assam
12KOJKokrajhar (3)  16:19+2016:20+251m--2766.97046mNFR03661-270618, Assam
13APDJAlipur Duar Junction (3)  17:30+3217:35+345m--2848.14053mNFRDist - Alipurduar, West Bengal
14NJPNew Jalpaiguri Junction (8)X  21:45+3722:00+4315m321016.679114mNFRCity-Siliguri . Dist-Jalpaiguri, West Bengal
15KNEKishanGanj (3)X  23:06+5523:08+552m--21104.05252mNFRKishanganj, Bihar
16MLDTMalda Town (5)X  02:00+4802:15+4415m--31252.15030mERDist - Malda, West Bengal
17RPHRampurhat (3)  04:45+4904:50+485m131375.94741mERDIST - Birbhum, West Bengal
18UDLAndal Junction (6)  07:00-07:02-2m--31477.13186mERAndal, West Bengal
19DGRDurgapur (5)XO07:35+4708:00+3825m131494.14671mERDurgapur, West Bengal
20ASNAsansol Junction (7)  08:55+3009:05+3110m431536.545113mERDist - bardhaman, West Bengal
21ADRAAdra Junction (4)  10:00+3410:05+365m431578.071190mSERDist - Puruliya, West Bengal
22BQABankura Junction (3)X  10:50+3010:52+312m--31630.99389mSERDist - Bankura, West Bengal
23MDNMidnapore (3)  11:58+3812:00+382m--31733.51553mSERMedinipur, West Bengal
24HIJHijli (2)  12:56+1712:57+251m331747.28548mSERdist - paschim medinipur, West Bengal
25BLSBalasore (4)  14:16+1614:18+152m331859.46919mSERBalasore, Odisha
26BHCBhadrak (4)  15:12+5015:14+502m--31921.89023mECoRBhadrak, Odisha
27CTCCuttack Junction (5)  16:31+1:1116:33+1:182m--32037.54228mECoRCuttack, Odisha
28BBSBhubaneswar (4)X  17:13+1:2217:18+1:225m432065.45240mECoRBhubaneshwar, Odisha
29KURKhurda Road Junction (7)X  17:40+1:2917:55+1:2815m--32084.37725mECoRKhordha, Odisha
30BAMBrahmapur (3)X  19:50+1:3919:55+1:395m232231.42827mECoRBerhampur, Odisha
31PSAPalasa (3)X  22:33+2222:35+222m--32305.87731mECoRKasibugga, Andhra Pradesh
32CHESrikakulam Road (4)  23:32+2523:34+282m--32378.87434mECoRsrikakulam road ph .no. 08942-287222, Andhra Pradesh
33VZMVizianagaram Junction (5)X  00:30+2600:32+282m--42448.36363mECoRVizianagaram, Andhra Pradesh
34VSKPVisakhapatnam Junction (8)X01:30+3501:50+3320m342509.43511mECoRVishakhapatnam 530001, Andhra Pradesh
35DVDDuvvada (4)  02:18+3402:20+342m--42525.89346mECoRVishakhapatnam District, Andhra Pradesh
36SLOSamalkot Junction (3)  03:46+1:0803:47+1:091m342659.16118mSCRSamalkot, Andhra Pradesh
37RJYRajahmundry (3)  04:36+1:1204:38+1:132m142709.26723mSCRRajahmundry ph.no. 0883-2420541, Andhra Pradesh
38EEEluru (3)X  05:59+1:0506:00+1:061m--42799.14519mSCREluru Ph.no. 08812 226401., Andhra Pradesh
39BZAVijayawada Junction (10)X  07:20+1:0307:40+1:0120m--42858.57724mSCRVijayawada 520001, Andhra Pradesh
40OGLOngole (3)  09:28+1:1809:29+1:191m342996.810812mSCROngole, Andhra Pradesh
41NLRNellore (4)  10:34+1910:35+191m343113.63421mSCRNellore, Andhra Pradesh
42RURenigunta Junction (5)X  14:10+3414:20+3810m--43235.469113mSCRChittoor District, Andhra Pradesh
43KPDKatpadi Junction (5)  16:08+1:0416:10+1:042m143359.950213mSRVellore 632007, Tamil Nadu
44JTJJolarpettai Junction (5)X  17:50+3517:55+355m--43443.772405mSRJolarpettai, Tamil Nadu
45SASalem Junction (6)  19:35+4719:40+475m--43563.967283mSRSalem, Tamil Nadu
46EDErode Junction (4)  20:35+5320:40+565m243625.370175mSRErode ph.no: 0424-2256111, Tamil Nadu
47TUPTiruppur (2)X  21:23+5321:25+532m143675.547305mSRTiruppur. Ph:0421-2200450, Tamil Nadu
48CBECoimbatore Main Junction (6)X  22:30+4822:35+495m--43726.038416mSRCoimbatore 641001, Tamil Nadu
49PGTPalakkad Junction (4)  00:02+5000:05+563m--53781.37384mSRPalghat Tel: 0491 2555231, Kerala
50TCRThrissur (4)  01:07+1:1301:10+1:133m153857.1626mSRThrissur Tel: 0487 2423150, Kerala
51AWYAluva (3)  02:03+5102:05+522m153911.73412mSRPh: 0484-2624141, Kerala
52ERNErnakulam Town (North) (2)  02:35+3202:40+335m253928.5609mSRTel: 0484 2395198, Kerala
53KTYMKottayam (3)  03:40+1:2503:45+1:255m--53988.55315mSRTel: 0481 2563535, Kerala
54CNGRChengannur (3)  04:24+1:2704:25+1:281m154023.3496mSRPh: 0479-2452340, Kerala
55QLNKollam Junction (6)O  05:40+3905:45+385m154084.34816mSRKollam 0474-2746194, Kerala
56TVCTrivandrum Central (5)  07:05+2807:15+2810m154148.93312mSRThiruvananthapuram 695001, Kerala
57NCJNagercoil Junction (4)  09:25+4409:30+455m--54220.03122mSRNagercoil-629002, Tamil Nadu
58CAPE•Kanniyakumari (3)•  10:00+37---54235.5-38mSRKanyakumari, Tamil Nadu
Scroll to Top
Scroll to Bottom